ATLAS 5 CENTAUR DEB, 45474

Orbit data source: Space-Track

ATLAS 5 CENTAUR DEB, 45474 is space debris in HEO originally from a launch on Wed, 17 Oct 2018 UTC launched from the Air Force Eastern Test Range (AFETR). Debris objects in space refer to the collection of defunct objects orbiting the Earth. Examples of debris include non-operational satellites, rocket bodies, and fragments generated from explosions, collisions, or faulty payload assembly.

Loading next visibility...
ATLAS 5 CENTAUR DEB details
Identifier
45474, 2018-079BW
Orbit
HEO
Last TLE update22 hours ago
Origin
Flag of USULA (US)
ManufacturerULA Decatur
MissionSpacecraft
Bus & MotorUnknown
MassUnknown
Launch date (UTC)
2018-10-17 (6 years ago)
Launch vehicleUnknown
Launch site
Air Force Eastern Test Range (AFETR)
Object type
Payload
Rocket body
Debris
Shape & HBRUnknown
Radar Cross SectionRCS unknown

Expand to show TLE details & history

TLE from 22 hours ago
0 ATLAS 5 CENTAUR DEB
1 45474U 18079BW  24360.54075385 -.00000098  00000-0  00000-0 0  9999
2 45474  11.9290 102.9658 4567871 175.2081 191.3359  1.74222694 33601
Epoch: 2024-12-25T12:58Z
Definitive object data (Epoch: 2024-12-25T12:58:41.132Z)
Latitude
Longitude173.70075°
Altitude36,024.569 km
Speed2.267 km/s
True Right ascension06h 51m 37s
True Declination0° 00' 00"
Sunlit
Object was in daylight at TLE epoch
Visualization TLE readout
Latitude-11.9535°
Longitude84.89854°
Altitude17,817.156 km
Speed4.392 km/s
Apparent Right ascension00h 29m 52s
Apparent Declination-18° 12' 45"
Sunlit
Object is in daylight
Visualization observer readout
Local Sidereal Time10:14:04
Azimuth296.624° NW
Elevation-53.603°
Doppler factor1
Orbital elements
Apogee altitude36,125.385 km
Perigee altitude9,470.755 km
Semi-major axis29,176.207 km
Eccentricity0.4567871
Inclination11.929°
RAAN102.9658°
Arg. of periapsis175.2081°
True anomaly184.76086°
Mean anomaly191.3359°
Eccentric anomaly187.78895°
Mean motion0.43551 °/min
BSTARUnknown
Orbital period826.61 mins
Loading maneuver chart data...

ATLAS 5 CENTAUR DEB Visibility forecast

Observer location: undefined°, undefined

Span
Click to sort rows by Start time (UTC) header in descending order
Start Az.
Max El. time (UTC)
Max El. Az.
Max El.
End time (UTC)
End Az.
697 mins2024-12-26 23:15:49.083Z229.947° WSW2024-12-27 09:53:49.083Z158.17° S37.435°2024-12-27 10:52:49.083Z140.935° SSE
|